Location: Ashtead
(51.3000°N, 0.3000°W)
Time: 05:20:59
(UTC+00:00)

YAOGAN 6 - Pass Details

Date: 26 September 2023
Orbit: 432 x 459 km, 97.1° (Epoch: 29 November)

Event Time Altitude Azimuth Distance (km) Brightness Sun altitude
Rises 05:02:43 0° 359° (N) 2,443 6.2 -8.7°
Reaches altitude 10° 05:05:11 10° 340° (NNW) 1,574 5.0 -8.3°
Maximum altitude 05:07:31 18° 296° (WNW) 1,183 4.0 -7.9°
Drops below altitude 10° 05:09:51 10° 252° (WSW) 1,580 4.5 -7.6°
Enters shadow 05:09:57 10° 251° (WSW) 1,612 4.6 -7.6°
